TimeMDT,TemperatureF,Dew PointF,Humidity,Sea Level PressureIn,VisibilityMPH,Wind Direction,Wind SpeedMPH,Gust SpeedMPH,PrecipitationIn,Events,Conditions,WindDirDegrees,DateUTC
12:15 AM,30.2,19.4,64,30.15,10.0,North,9.2,-,N/A,,Clear,360,2012-10-10 06:15:00
12:35 AM,30.2,21.2,69,30.15,10.0,North,5.8,-,N/A,,Clear,360,2012-10-10 06:35:00
12:55 AM,30.2,19.4,64,30.15,10.0,North,3.5,-,N/A,,Clear,360,2012-10-10 06:55:00
1:15 AM,28.4,19.4,69,30.16,10.0,North,5.8,-,N/A,,Clear,360,2012-10-10 07:15:00
1:35 AM,30.2,21.2,69,30.16,10.0,NNE,4.6,-,N/A,,Clear,20,2012-10-10 07:35:00
2:15 AM,30.2,21.2,69,30.16,10.0,North,6.9,-,N/A,,Clear,350,2012-10-10 08:15:00
2:35 AM,26.6,19.4,74,30.17,10.0,North,5.8,-,N/A,,Clear,360,2012-10-10 08:35:00
2:55 AM,26.6,19.4,74,30.17,10.0,North,8.1,-,N/A,,Clear,360,2012-10-10 08:55:00
3:15 AM,24.8,17.6,74,30.17,10.0,NNE,3.5,-,N/A,,Clear,30,2012-10-10 09:15:00
3:35 AM,24.8,19.4,80,30.16,10.0,Calm,Calm,-,N/A,,Clear,0,2012-10-10 09:35:00
3:55 AM,28.4,21.2,74,30.16,10.0,NNE,4.6,-,N/A,,Clear,20,2012-10-10 09:55:00
4:15 AM,24.8,19.4,80,30.16,10.0,North,6.9,-,N/A,,Clear,10,2012-10-10 10:15:00
4:35 AM,24.8,19.4,80,30.16,10.0,North,3.5,-,N/A,,Clear,10,2012-10-10 10:35:00
4:55 AM,24.8,19.4,80,30.16,10.0,NNE,3.5,-,N/A,,Clear,20,2012-10-10 10:55:00
5:15 AM,24.8,19.4,80,30.16,10.0,North,5.8,-,N/A,,Clear,360,2012-10-10 11:15:00
5:35 AM,23.0,17.6,80,30.16,10.0,Calm,Calm,-,N/A,,Clear,0,2012-10-10 11:35:00
5:55 AM,24.8,19.4,80,30.17,10.0,North,4.6,-,N/A,,Clear,360,2012-10-10 11:55:00
6:15 AM,23.0,17.6,80,30.17,10.0,NNE,4.6,-,N/A,,Clear,30,2012-10-10 12:15:00
6:35 AM,23.0,19.4,86,30.17,10.0,North,6.9,-,N/A,,Clear,10,2012-10-10 12:35:00
6:51 AM,21.2,17.6,86,30.17,10.0,North,6.9,-,N/A,,Clear,360,2012-10-10 12:51:00
7:51 AM,21.2,17.6,86,30.17,10.0,Calm,Calm,-,N/A,,Clear,0,2012-10-10 13:51:00
8:51 AM,28.4,21.2,74,30.18,10.0,Calm,Calm,-,N/A,,Clear,0,2012-10-10 14:51:00
9:55 AM,35.6,21.2,56,30.17,10.0,Calm,Calm,-,N/A,,Clear,0,2012-10-10 15:55:00
10:53 AM,42.8,19.4,39,30.15,10.0,Calm,Calm,-,N/A,,Clear,0,2012-10-10 16:53:00
11:53 AM,48.2,21.2,34,30.13,10.0,Calm,Calm,-,N/A,,Clear,0,2012-10-10 17:53:00
12:54 PM,55.4,19.4,25,30.09,10.0,ESE,3.5,-,N/A,,Clear,110,2012-10-10 18:54:00
1:55 PM,62.6,17.6,18,30.05,10.0,SSE,8.1,-,N/A,,Clear,160,2012-10-10 19:55:00
2:51 PM,64.4,12.2,13,30.03,10.0,Calm,Calm,-,N/A,,Clear,0,2012-10-10 20:51:00
3:53 PM,64.4,12.2,13,30.01,10.0,SSW,6.9,-,N/A,,Clear,200,2012-10-10 21:53:00
4:58 PM,66.2,15.8,14,30.00,10.0,SW,9.2,17.3,N/A,,Clear,220,2012-10-10 22:58:00
5:55 PM,62.6,15.8,16,30.00,10.0,SSW,11.5,-,N/A,,Clear,210,2012-10-10 23:55:00
6:55 PM,60.8,14.0,16,30.00,10.0,SW,9.2,-,N/A,,Clear,220,2012-10-11 00:55:00
7:51 PM,55.4,15.8,21,30.01,10.0,SSW,3.5,-,N/A,,Clear,210,2012-10-11 01:51:00
8:51 PM,48.2,14.0,25,30.02,10.0,Calm,Calm,-,N/A,,Mostly Cloudy,0,2012-10-11 02:51:00
8:55 PM,48.2,14.0,25,30.02,10.0,ENE,4.6,-,N/A,,Overcast,70,2012-10-11 02:55:00
9:15 PM,51.8,15.8,24,30.02,10.0,ENE,4.6,-,N/A,,Overcast,60,2012-10-11 03:15:00
9:35 PM,50.0,15.8,26,30.02,10.0,Calm,Calm,-,N/A,,Overcast,0,2012-10-11 03:35:00
9:55 PM,48.2,15.8,27,30.03,10.0,Calm,Calm,-,N/A,,Overcast,0,2012-10-11 03:55:00
10:35 PM,42.8,15.8,34,30.03,10.0,Calm,Calm,-,N/A,,Overcast,0,2012-10-11 04:35:00
10:55 PM,41.0,14.0,33,30.03,10.0,Calm,Calm,-,N/A,,Mostly Cloudy,0,2012-10-11 04:55:00
11:15 PM,41.0,14.0,33,30.03,10.0,North,8.1,-,N/A,,Scattered Clouds,350,2012-10-11 05:15:00
11:35 PM,42.8,17.6,36,30.03,10.0,North,6.9,-,N/A,,Clear,360,2012-10-11 05:35:00
11:55 PM,42.8,17.6,36,30.03,10.0,North,6.9,-,N/A,,Clear,10,2012-10-11 05:55:00